WB4FAY-4 Weather Reports


Display with metric or nautical units.
time (UTC)temp
F
wind
direction
speed
MPH
gust
MPH
rain 1hr
in
rain 24hr
in
rain mn
in
humidity
%
barometer
mb
20260503020018 58 0 0.0 0.0 0.00 0.00 0.00 62 1018.1
20260503015517 58 0 0.0 0.0 0.00 0.00 0.00 61 1018.0
20260503015017 59 0 0.0 0.0 0.00 0.00 0.00 60 1018.0
20260503014518 59 0 0.0 0.0 0.00 0.00 0.00 60 1017.8
20260503014017 59 0 0.0 0.0 0.00 0.00 0.00 59 1017.8
20260503013517 60 0 0.0 0.0 0.00 0.00 0.00 58 1017.7
20260503013017 60 0 0.0 0.0 0.00 0.00 0.00 57 1017.6
20260503012518 60 0 0.0 0.0 0.00 0.00 0.00 56 1017.5
20260503012017 61 0 0.0 0.0 0.00 0.00 0.00 55 1017.4
20260503011517 61 0 0.0 0.0 0.00 0.00 0.00 53 1017.4
20260503011018 62 0 0.0 0.0 0.00 0.00 0.00 53 1017.3
20260503010517 62 0 0.0 0.0 0.00 0.00 0.00 53 1017.3
20260503010018 62 0 0.0 0.0 0.00 0.00 0.00 51 1017.2
20260503005517 63 0 0.0 0.0 0.00 0.00 0.00 50 1017.2
20260503005017 63 0 0.0 0.0 0.00 0.00 0.00 51 1017.1
20260503004517 64 0 0.0 0.0 0.00 0.00 0.00 47 1017.1
20260503004017 64 0 0.0 0.0 0.00 0.00 0.00 44 1017.0
20260503003517 64 0 0.0 0.0 0.00 0.00 0.00 44 1016.9
20260503003017 65 0 0.0 0.0 0.00 0.00 0.00 44 1016.9
20260503002517 65 319 0.0 3.0 0.00 0.00 0.00 42 1016.8
20260503002017 66 344 0.0 5.0 0.00 0.00 0.00 42 1016.8
20260503001517 66 357 1.0 4.0 0.00 0.00 0.00 42 1016.6
20260503001018 66 25 0.0 6.0 0.00 0.00 0.00 40 1016.5
20260503000517 66 21 3.0 4.0 0.00 0.00 0.00 41 1016.5
20260503000017 67 356 0.0 3.0 0.00 0.00 0.00 40 1016.4
20260502235517 67 23 1.0 6.0 0.00 0.00 0.00 38 1016.3
20260502235017 67 13 3.0 6.0 0.00 0.00 0.00 39 1016.3
20260502234518 67 10 0.0 3.0 0.00 0.00 0.00 39 1016.2
20260502234018 67 62 1.0 6.0 0.00 0.00 0.00 38 1016.1
20260502233517 67 356 0.0 7.0 0.00 0.00 0.00 38 1016.1
20260502233017 67 360 5.0 9.0 0.00 0.00 0.00 36 1016.2
20260502232517 67 299 4.0 7.0 0.00 0.00 0.00 37 1016.1
20260502232017 67 349 2.0 8.0 0.00 0.00 0.00 38 1016.1
20260502231517 68 274 0.0 4.0 0.00 0.00 0.00 38 1016.1
20260502231017 68 34 0.0 5.0 0.00 0.00 0.00 39 1016.1
20260502230517 68 344 0.0 4.0 0.00 0.00 0.00 39 1016.1
20260502230017 68 18 4.0 11.0 0.00 0.00 0.00 37 1016.1
20260502225517 69 38 3.0 8.0 0.00 0.00 0.00 37 1016.0
20260502225017 69 20 1.0 10.0 0.00 0.00 0.00 37 1016.0
20260502224517 69 18 1.0 12.0 0.00 0.00 0.00 36 1016.0
20260502224017 70 11 4.0 12.0 0.00 0.00 0.00 36 1016.0
20260502223517 70 8 3.0 11.0 0.00 0.00 0.00 35 1016.0
20260502223017 70 18 2.0 8.0 0.00 0.00 0.00 35 1016.0
20260502222517 70 41 2.0 6.0 0.00 0.00 0.00 37 1016.0
20260502222017 69 35 3.0 5.0 0.00 0.00 0.00 37 1016.1
20260502221517 69 32 1.0 8.0 0.00 0.00 0.00 37 1016.1
20260502221017 69 350 4.0 12.0 0.00 0.00 0.00 36 1016.1
20260502220517 70 322 6.0 7.0 0.00 0.00 0.00 36 1016.0
20260502220017 70 31 5.0 6.0 0.00 0.00 0.00 36 1016.0
20260502215517 70 11 3.0 11.0 0.00 0.00 0.00 35 1015.9
20260502215017 70 6 6.0 11.0 0.00 0.00 0.00 35 1015.9
20260502214517 70 17 7.0 18.0 0.00 0.00 0.00 35 1015.9
20260502214017 71 11 4.0 15.0 0.00 0.00 0.00 34 1016.0
20260502213517 71 13 4.0 13.0 0.00 0.00 0.00 36 1015.9
20260502213017 71 14 6.0 13.0 0.00 0.00 0.00 37 1015.9
20260502212517 71 360 2.0 12.0 0.00 0.00 0.00 34 1015.9
20260502212017 71 353 4.0 11.0 0.00 0.00 0.00 35 1015.9
20260502211517 71 14 0.0 9.0 0.00 0.00 0.00 34 1015.9
20260502211017 71 20 3.0 12.0 0.00 0.00 0.00 35 1016.0
20260502210517 70 342 0.0 10.0 0.00 0.00 0.00 35 1015.9
20260502210017 70 315 4.0 13.0 0.00 0.00 0.00 34 1016.0
20260502205517 70 289 2.0 8.0 0.00 0.00 0.00 36 1016.0
20260502205017 70 6 1.0 11.0 0.00 0.00 0.00 34 1016.0
20260502204517 70 346 2.0 15.0 0.00 0.00 0.00 36 1016.1
20260502204017 70 24 4.0 13.0 0.00 0.00 0.00 34 1016.1
20260502203517 70 8 4.0 10.0 0.00 0.00 0.00 35 1016.1
20260502203017 70 305 2.0 14.0 0.00 0.00 0.00 34 1016.2
20260502202517 70 350 1.0 10.0 0.00 0.00 0.00 33 1016.1
20260502202017 70 320 3.0 12.0 0.00 0.00 0.00 32 1016.1
20260502201517 70 11 3.0 14.0 0.00 0.00 0.00 34 1016.2
20260502201017 70 0 4.0 10.0 0.00 0.00 0.00 32 1016.2
20260502200518 70 335 5.0 10.0 0.00 0.00 0.00 35 1016.2
20260502200017 70 88 8.0 3.0 0.00 0.00 0.00 36 1016.2
20260502195517 69 360 0.0 10.0 0.00 0.00 0.00 33 1016.2
20260502195017 69 10 4.0 10.0 0.00 0.00 0.00 35 1016.3
20260502194517 69 342 2.0 11.0 0.00 0.00 0.00 35 1016.2
20260502194017 69 360 5.0 12.0 0.00 0.00 0.00 35 1016.2
20260502193517 69 354 4.0 13.0 0.00 0.00 0.00 35 1016.3
20260502193017 68 330 0.0 12.0 0.00 0.00 0.00 38 1016.2
20260502192518 68 3 11.0 12.0 0.00 0.00 0.00 37 1016.3
20260502192017 68 349 5.0 12.0 0.00 0.00 0.00 36 1016.3
20260502191517 68 25 6.0 16.0 0.00 0.00 0.00 41 1016.3
20260502191017 68 360 8.0 9.0 0.00 0.00 0.00 38 1016.2
20260502190517 68 313 3.0 7.0 0.00 0.00 0.00 40 1016.2
20260502190017 68 114 6.0 9.0 0.00 0.00 0.00 39 1016.4
20260502185517 68 357 6.0 12.0 0.00 0.00 0.00 38 1016.4
20260502185022 68 99 3.0 10.0 0.00 0.00 0.00 38 1016.5
20260502184518 68 64 1.0 10.0 0.00 0.00 0.00 38 1016.4
20260502184017 68 17 6.0 13.0 0.00 0.00 0.00 37 1016.8
20260502183517 68 51 0.0 11.0 0.00 0.00 0.00 39 1016.6
20260502183018 67 103 4.0 10.0 0.00 0.00 0.00 38 1016.6
20260502182517 67 34 3.0 7.0 0.00 0.00 0.00 38 1016.8
20260502182017 67 96 4.0 13.0 0.00 0.00 0.00 39 1016.9
20260502181517 67 308 4.0 12.0 0.00 0.00 0.00 39 1017.0
20260502181017 67 42 2.0 8.0 0.00 0.00 0.00 42 1016.9
20260502180517 66 35 8.0 10.0 0.00 0.00 0.00 39 1016.9
20260502170518 64 14 4.0 10.0 0.00 0.00 0.00 46 1017.3
20260502164017 63 85 2.0 12.0 0.00 0.00 0.00 51 1017.3
20260502163518 62 90 7.0 12.0 0.00 0.00 0.00 48 1017.4
20260502163017 62 13 4.0 8.0 0.00 0.00 0.00 53 1017.5
20260502162517 62 346 0.0 12.0 0.00 0.00 0.00 53 1017.5
20260502162017 62 18 5.0 15.0 0.00 0.00 0.00 52 1017.6
20260502161517 62 360 3.0 10.0 0.00 0.00 0.00 55 1017.5
20260502161018 62 44 1.0 10.0 0.00 0.00 0.00 55 1017.5
20260502160517 61 93 1.0 10.0 0.00 0.00 0.00 55 1017.4
20260502152017 60 346 1.0 12.0 0.00 0.00 0.00 59 1017.2
20260502151517 60 24 0.0 9.0 0.00 0.00 0.00 61 1017.1
20260502151018 59 332 0.0 9.0 0.00 0.00 0.00 60 1017.0
20260502150517 59 352 3.0 7.0 0.00 0.00 0.00 61 1016.9
20260502130517 56 320 0.0 5.0 0.00 0.00 0.00 66 1015.5
20260502123518 56 18 0.0 10.0 0.00 0.00 0.00 65 1015.3
20260502123017 56 323 8.0 18.0 0.00 0.00 0.00 65 1015.3
20260502122517 56 325 3.0 12.0 0.00 0.00 0.00 65 1015.3
20260502122018 56 360 3.0 14.0 0.00 0.00 0.00 65 1015.3
20260502121517 56 335 7.0 11.0 0.00 0.00 0.00 66 1015.2
20260502121018 56 11 3.0 14.0 0.00 0.00 0.00 66 1015.1
20260502120518 56 13 0.0 8.0 0.00 0.00 0.00 66 1015.0
20260502115518 56 31 0.0 7.0 0.00 0.00 0.00 65 1014.9
20260502115018 56 353 4.0 7.0 0.00 0.00 0.00 65 1014.8
20260502114518 56 89 3.0 7.0 0.00 0.00 0.00 65 1014.7
20260502114017 56 13 0.0 4.0 0.00 0.00 0.00 65 1014.7
20260502113518 56 16 3.0 7.0 0.00 0.00 0.00 65 1014.7
20260502113017 56 8 3.0 8.0 0.00 0.00 0.00 64 1014.7
20260502112518 56 360 2.0 7.0 0.00 0.00 0.00 64 1014.7
20260502112018 56 335 0.0 7.0 0.00 0.00 0.00 64 1014.8
20260502111518 56 306 0.0 7.0 0.00 0.00 0.00 65 1014.9
20260502111017 56 3 3.0 9.0 0.00 0.00 0.00 64 1014.8
20260502110518 56 6 3.0 8.0 0.00 0.00 0.00 65 1014.7
20260502110018 56 20 2.0 9.0 0.00 0.00 0.00 65 1014.7
20260502105518 56 335 0.0 7.0 0.00 0.00 0.00 65 1014.5
20260502105018 56 21 2.0 6.0 0.00 0.00 0.00 65 1014.7
20260502104517 57 354 3.0 12.0 0.00 0.00 0.00 65 1014.4
20260502104018 57 7 4.0 5.0 0.00 0.00 0.00 66 1013.9
20260502103518 57 16 2.0 6.0 0.00 0.00 0.00 64 1014.5
20260502103017 57 320 4.0 9.0 0.00 0.00 0.00 64 1014.6
20260502102518 57 25 2.0 7.0 0.00 0.00 0.00 66 1014.4
20260502102018 57 18 0.0 8.0 0.00 0.00 0.00 66 1014.1
20260502101518 57 8 4.0 11.0 0.00 0.00 0.00 66 1014.7
20260502101018 57 332 7.0 10.0 0.00 0.00 0.00 67 1015.0
20260502100518 57 65 0.0 3.0 0.00 0.00 0.00 68 1014.9
20260502091517 57 31 3.0 6.0 0.00 0.00 0.00 73 1014.4
20260502091017 57 18 2.0 5.0 0.00 0.00 0.00 73 1014.4
20260502090517 57 329 1.0 8.0 0.00 0.00 0.00 73 1014.8
20260502071518 58 339 2.0 8.0 0.00 0.00 0.00 86 1014.4
20260502071017 58 133 1.0 6.0 0.00 0.00 0.00 88 1014.4
20260502070517 57 20 3.0 7.0 0.00 0.00 0.00 88 1014.7
20260502070017 57 336 1.0 9.0 0.00 0.00 0.00 90 1014.9
20260502065518 57 339 2.0 7.0 0.00 0.00 0.00 92 1014.9
20260502065017 57 18 6.0 5.0 0.00 0.00 0.00 94 1014.9
20260502064517 57 7 3.0 10.0 0.00 0.00 0.00 95 1015.0
20260502064017 57 10 8.0 6.0 0.00 0.00 0.00 96 1015.1
20260502063518 57 329 1.0 3.0 0.00 0.00 0.00 96 1015.1
20260502063017 58 339 2.0 4.0 0.00 0.00 0.00 96 1015.1
20260502062517 58 329 0.0 4.0 0.00 0.00 0.00 96 1014.9
20260502062017 58 0 0.0 0.0 0.00 0.00 0.00 96 1014.8
20260502061517 58 0 0.0 0.0 0.00 0.00 0.00 96 1014.9
20260502061018 58 0 0.0 0.0 0.00 0.00 0.00 96 1015.0
20260502060517 57 0 0.0 0.0 0.00 0.00 0.00 96 1015.1
20260502060017 58 0 0.0 0.0 0.00 0.00 0.00 96 1014.9
20260502055518 58 0 0.0 0.0 0.00 0.00 0.00 96 1014.8
20260502055017 57 0 0.0 0.0 0.00 0.00 0.00 96 1014.9
20260502054517 57 0 0.0 0.0 0.00 0.00 0.00 96 1014.9
20260502054017 57 0 0.0 0.0 0.00 0.00 0.00 96 1014.6
20260502053517 57 0 0.0 0.0 0.00 0.00 0.00 96 1014.7
20260502053017 57 0 0.0 0.0 0.00 0.00 0.00 96 1014.9
20260502052518 57 0 0.0 0.0 0.00 0.00 0.00 96 1014.9
20260502052017 57 0 0.0 0.0 0.00 0.00 0.00 96 1014.8
20260502051517 57 0 0.0 0.0 0.00 0.00 0.00 96 1014.7
20260502051017 58 0 0.0 0.0 0.00 0.00 0.00 96 1014.7
20260502050517 58 0 0.0 0.0 0.00 0.00 0.00 96 1014.8
20260502050017 58 0 0.0 0.0 0.00 0.00 0.00 96 1014.6
20260502045517 58 0 0.0 0.0 0.00 0.01 0.00 96 1014.9
20260502045017 58 0 0.0 0.0 0.00 0.01 0.00 96 1014.8
20260502044517 57 0 0.0 0.0 0.00 0.01 0.00 96 1014.8
20260502044017 58 0 0.0 0.0 0.00 0.01 0.00 96 1014.8
20260502043517 58 0 0.0 0.0 0.00 0.01 0.00 96 1014.6
20260502043017 58 0 0.0 0.0 0.00 0.01 0.00 96 1014.6
20260502042517 58 0 0.0 0.0 0.00 0.01 0.00 96 1014.4
20260502042017 58 0 0.0 0.0 0.00 0.01 0.00 96 1014.4
20260502041517 58 0 0.0 0.0 0.00 0.01 0.00 96 1014.4
20260502041017 58 0 0.0 0.0 0.00 0.01 0.00 96 1014.5
20260502040517 58 0 0.0 0.0 0.00 0.01 0.00 96 1014.4
20260502040017 58 0 0.0 0.0 0.00 0.01 0.00 96 1014.4
20260502035517 58 0 0.0 0.0 0.00 0.01 0.00 96 1014.3
20260502035017 58 0 0.0 0.0 0.00 0.01 0.00 96 1014.4
20260502034517 58 0 0.0 0.0 0.00 0.01 0.00 95 1014.4
20260502034017 58 0 0.0 0.0 0.00 0.01 0.00 95 1014.4
20260502033517 58 0 0.0 0.0 0.00 0.01 0.00 95 1014.6
20260502033017 58 0 0.0 0.0 0.00 0.01 0.00 95 1014.7
20260502032517 58 0 0.0 0.0 0.00 0.01 0.00 95 1014.9
20260502032017 58 0 0.0 0.0 0.00 0.01 0.00 95 1014.9
20260502031517 58 0 0.0 0.0 0.00 0.01 0.00 95 1014.9
20260502031017 58 0 0.0 0.0 0.00 0.01 0.00 95 1015.0
20260502030517 58 0 0.0 0.0 0.00 0.01 0.00 94 1015.1
20260502030017 58 0 0.0 0.0 0.00 0.01 0.00 94 1015.1
20260502025517 59 0 0.0 0.0 0.00 0.01 0.00 94 1015.1
20260502025017 59 0 0.0 0.0 0.00 0.01 0.00 94 1015.1
20260502024517 58 0 0.0 0.0 0.00 0.01 0.00 94 1015.2
20260502024017 58 0 0.0 0.0 0.00 0.01 0.00 93 1015.2
20260502023517 59 0 0.0 0.0 0.00 0.01 0.00 93 1015.2
20260502023017 59 0 0.0 0.0 0.00 0.01 0.00 93 1015.2
20260502022517 59 0 0.0 0.0 0.00 0.01 0.00 92 1015.3
20260502022017 59 0 0.0 0.0 0.00 0.01 0.00 92 1015.4
20260502021517 58 0 0.0 0.0 0.00 0.01 0.00 91 1015.4
20260502021017 59 0 0.0 0.0 0.00 0.01 0.00 90 1015.4
20260502020518 59 0 0.0 0.0 0.00 0.01 0.00 90 1015.5